Current Version              Previous Version:    01  02  03  04  05  06  07  08  09  10  11  12  13  14  15  16  17  18  19  20  21  22  23  24  25  26  27  28  29  30  
   31  32  33  34  35  36  37  38  39  40  41  42  43  44  45  46  47  48  49  50  51  52  53  54  55  56  57  58  59  60  

[Printable]
752
ASUS44 KEWX 241710
RWRTX
SOUTH TEXAS REGIONAL WEATHER ROUNDUP
NATIONAL WEATHER SERVICE AUSTIN/SAN ANTONIO TX
1200 PM CDT THU APR 24 2014

NOTE: "FAIR" INDICATED FEW OR NO CLOUDS BELOW 12,000 FEET WITH NO
SIGNIFICANT WEATHER AND/OR OBSTRUCTIONS TO VISIBILITY.

* - THESE STATIONS ARE NOT NWS OR FAA STATIONS...AND ARE NOT SUBJECT
    TO NWS AND FAA QUALITY CONTROL.

TXZ171-172-183>190-241800-
TEXAS HILL COUNTRY AND EDWARDS PLATEAU

CITY           SKY/WX    TMP DP  RH WIND       PRES   REMARKS
JUNCTION       SUNNY     87  40  19 NW15G23   29.89F
*LLANO         SUNNY     81  63  54 NW6       29.89F
BURNET         SUNNY     78  61  55 W10       29.89S
*HORSESHOE BAY MOSUNNY   80  61  51 W6        29.86F
*KERRVILLE     MOSUNNY   77  64  63 CALM      29.90F
*FREDERICKSBRG SUNNY     77  62  59 CALM      29.89F
*ROCKSPRINGS   SUNNY     81  48  32 NW13G23   29.95F
*BOERNE STAGE  CLOUDY    72  63  73 SW3       29.92F
*CASTROVILLE   CLOUDY    73  64  73 CALM      29.91S
HONDO          PTSUNNY   78  64  61 VRB3      29.91S
*UVALDE        MOSUNNY   75  66  71 N3        29.90F
DEL RIO        SUNNY     83  60  45 W12       29.89S
LAUGHLIN AFB   SUNNY     83  60  46 NW16      29.90R
CARRIZO SPRGS  CLOUDY    77  66  69 N5        29.88
$$

TXZ173-191>194-202-209-217>225-228-241800-
CENTRAL AND SOUTH CENTRAL TEXAS

CITY           SKY/WX    TMP DP  RH WIND       PRES   REMARKS
GEORGETOWN     CLOUDY    75  64  69 SW9G17    29.87F
AUSTIN/BERGSTM CLOUDY    74  65  73 SW9       29.88S
AUSTIN/MABRY   CLOUDY    74  65  73 VRB7      29.89S
*AUSTIN/EXEC   CLOUDY    73  66  78 SW10G16   29.89S
*LAGO VISTA    CLOUDY    75  64  67 S9        29.89F
SAN MARCOS     NOT AVBL
NEW BRAUNFELS  CLOUDY    74  65  73 SW10      29.88S
RANDOLPH AFB   CLOUDY    72  64  76 W7        29.90R
PT SAN ANTONIO CLOUDY    73  66  78 W2        29.89S
SAN ANTONIO    CLOUDY    73  65  75 S3        29.90R
STINSON FIELD  CLOUDY    74  65  73 CALM      29.89R
*PLEASANTON    CLOUDY    75  65  70 CALM      29.90R
*LA GRANGE     PTSUNNY   77  68  73 SW8       29.88R
*GIDDINGS      CLOUDY    74  64  71 SW9       29.92S
*GONZALES      CLOUDY    76  68  75 SW6       29.88S
$$

TXZ163>164-176>182-195>201-210>213-226-227-235-241800-
SOUTHEAST TEXAS

CITY           SKY/WX    TMP DP  RH WIND       PRES   REMARKS
COLLEGE STN    CLOUDY    77  64  64 S14       29.87F
*BRYAN         CLOUDY    75  65  70 S7        29.87S
*CALDWELL      CLOUDY    75  66  73 SW13      29.90F
*CROCKETT      MOSUNNY   77  72  83 SW7       29.91F
*BRENHAM       MOSUNNY   77  65  66 SW8       29.89S
HUNTSVILLE     CLOUDY    78  63  59 SW8G16    29.89R
CONROE         PTSUNNY   76  65  68 S10       29.89R
HOUSTON BUSH   CLOUDY    78  65  63 VRB7      29.88S
HOUSTON HOBBY  CLOUDY    76  66  71 S5        29.89R
*HOUSTON SW AP CLOUDY    78  66  65 SW5       29.91R
PEARLAND       CLOUDY    76  66  71 SW5       29.90R
HOUSTON HOOKS  CLOUDY    76  67  73 S10G16    29.88S
ELLINGTON FLD  NOT AVBL
SUGAR LAND     CLOUDY    80  67  64 S9G18     29.88F
*HOUSTON EXEC  CLOUDY    79  66  65 S14       29.89F
*CLEVELAND MUN CLOUDY    77  66  68 S12G17    29.89R HAZE
*WHARTON       CLOUDY    78  66  66 S17G23    29.89R
$$

TXZ214>216-236>238-241800-
THE UPPER TEXAS COAST

CITY           SKY/WX    TMP DP  RH WIND       PRES   REMARKS
*ORANGE        MOSUNNY   77  66  68 S15       29.94F
PORT ARTHUR    MOSUNNY   79  65  62 S17       29.91F
GALVESTON      PTSUNNY   74  69  85 S26G33    29.85F
ANGLETON       CLOUDY    75  67  76 S23       29.87F
*BAY CITY      CLOUDY    78  70  78 S17G26    29.87S
PALACIOS       CLOUDY    76  69  79 S20G25    29.88F
$$

TXZ229>234-239>247-241800-
TEXAS COASTAL BEND AND RIO GRANDE PLAINS

CITY           SKY/WX    TMP DP  RH WIND       PRES   REMARKS
VICTORIA       CLOUDY    81  67  62 S15G22    29.87S
*BEEVILLE      CLOUDY    80  66  62 S8        29.87R
ROCKPORT       CLOUDY    79  69  71 SE14G24   29.87R
*PORT ARANSAS  CLOUDY    76  70  80 SE9       29.88R
*PORT LAVACA   CLOUDY    78  67  69 S16       29.88R
*INGLESIDE     PTSUNNY   81  69  66 S14G24    29.86F
CORPUS CHRISTI PTSUNNY   83  67  58 S17G25    29.85S
CORPUS NAS     PTSUNNY   80  71  74 SE18      29.86S
*ROBSTOWN      CLOUDY    82  68  61 SE12      29.84F
ALICE          PTSUNNY   84  67  56 S10       29.83F
KINGSVILLE NAS PTSUNNY   86  69  56 S13       29.83F HX  90
COTULLA        CLOUDY    75  65  70 CALM      29.88R
*FAITH RANCH   PTSUNNY   81  66  61 NW5       29.88S
LAREDO         CLOUDY    77  67  71 CALM      29.89R
$$

TXZ248>255-241800-
DEEP SOUTH TEXAS

CITY           SKY/WX    TMP DP  RH WIND       PRES   REMARKS
BROWNSVILLE    SUNNY     85  66  53 S22G30    29.83F
PORT ISABEL    NOT AVBL
*SOUTH PADRE   SUNNY     81  72  74 CALM      29.85F
HARLINGEN      SUNNY     87  66  49 S23G29    29.81F
*HEBBRONVILLE  CLOUDY    79  66  63 SE3       29.86S
MCALLEN        SUNNY     85  69  58 S10       29.81F
*WESLACO       SUNNY     87  65  46 S17G25    29.82S
FALFURRIAS     CLOUDY    83  66  56 S6        29.83S
EDINBURG       MOSUNNY   86  66  51 S9        29.82S
*ZAPATA        PTSUNNY   81  66  61 CALM      29.83F
$$

TXZ213>215-236>238-242>244-246-247-251-254-255-241800-
CMAN STATIONS

STATION/POSITION TIME  TEMP    WIND        PRES    WAVE
                       AIR SEA DIR/SP/G            HT/PER
                 (UTC) (F)     (DEG/KT/KT) (MB)    (FT/S)
SABINE PASS      1700   73 72  180/ 13/ 18 1013.5
SEA RIM ST PARK  1700   72     160/ 13/ 16 1013.7
NORTH JETTY/GLS  1700   71 73  180/ 23/ 27   N/A
EAGLE POINT      1700   73 69  170/ 16/ 19 1011.2
MORGANS POINT    1700   74 70  160/  9/ 12   N/A
MISSION/ARANSAS  1600   73     160/ 15     1012.0
PORT O`CONNOR    1700          140/ 10/ 12   N/A
PORT ARANSAS     1700   72 73  120/  8/ 10 1011.8
MALAQUITE BEACH  1700   72 72  110/ 11/ 13 1010.5
BAFFIN BAY       1700   74 75  140/ 16/ 22 1010.6
$$

GMZ080-GMZ150>470-241800-
OFFSHORE BUOY REPORTS

STATION/POSITION TIME  TEMP    WIND        PRES    WAVE
                       AIR SEA DIR/SP/G            HT/PER
                 (UTC) (F)     (DEG/KT/KT) (MB)    (FT/S)
20 E GALVESTON   1700   71 70  160/ 14/ 16 1012.8    3/ 5
35 NE PT MANSFLD 1700   72 71  140/  8/  8 1011.6    4/ 6
$$